Location: *
(0.1100°N, 5.5000°E)
Time: 11:21:36
(UTC+00:00)

Cosmos 1844 Rocket - Pass Details

Date: 07 December 2022
Orbit: 825 x 843 km, 71.0° (Epoch: 07 February)

Event Time Altitude Azimuth Distance (km) Brightness Sun altitude
Rises 18:25:24 0° 164° (SSE) 3,384 5.9 -12.9°
Reaches altitude 10° 18:28:48 10° 143° (SE) 2,450 5.0 -13.7°
Maximum altitude 18:32:11 16° 106° (ESE) 2,040 4.3 -14.5°
Enters shadow 18:32:49 16° 98° (E) 2,055 4.2 -14.6°
